GW4803 Weather Reports


time (UTC)temp
C
wind
direction
speed
KPH
gust
KPH
rain 1hr
cm
rain 24hr
cm
rain mn
cm
humidity
%
barometer
mb
20260507061002 9 14 8.0 14.5 0.00 0.00 0.00 67 1017.0
20260507060502 9 5 8.0 14.5 0.00 0.00 0.00 67 1017.2
20260507060100 9 355 6.4 12.9 0.00 0.00 0.00 67 1017.2
20260507055603 9 355 8.0 12.9 0.00 0.00 0.00 67 1017.0
20260507055059 9 13 4.8 6.4 0.00 0.00 0.00 67 1017.1
20260507054558 9 13 4.8 6.4 0.00 0.00 0.00 66 1017.0
20260507054057 9 13 3.2 8.0 0.00 0.00 0.00 66 1017.2
20260507053556 10 15 6.4 9.7 0.00 0.00 0.00 66 1017.0
20260507053059 10 22 6.4 8.0 0.00 0.00 0.00 66 1017.0
20260507052553 10 26 4.8 6.4 0.00 0.00 0.00 65 1017.1
20260507052053 10 26 4.8 6.4 0.00 0.00 0.00 65 1017.0
20260507051552 10 26 3.2 6.4 0.00 0.00 0.00 65 1017.0
20260507051052 10 26 4.8 8.0 0.00 0.00 0.00 65 1016.9
20260507050551 10 26 4.8 12.9 0.00 0.00 0.00 64 1016.8
20260507050049 10 24 6.4 12.9 0.00 0.00 0.00 64 1016.8
20260507045549 10 11 8.0 12.9 0.00 0.00 0.00 63 1016.7
20260507045049 10 16 9.7 12.9 0.00 0.00 0.00 63 1016.7
20260507044549 10 13 6.4 14.5 0.00 0.00 0.00 63 1016.9
20260507044047 11 5 8.0 14.5 0.00 0.00 0.00 62 1016.8
20260507043547 11 13 8.0 14.5 0.00 0.00 0.00 63 1016.7
20260507043047 11 5 9.7 14.5 0.00 0.00 0.00 63 1016.7
20260507042546 10 5 8.0 12.9 0.00 0.00 0.00 64 1016.7
20260507042046 10 9 9.7 12.9 0.00 0.00 0.00 64 1016.7
20260507041548 10 9 6.4 12.9 0.00 0.00 0.00 65 1016.7
20260507041051 10 14 6.4 12.9 0.00 0.00 0.00 66 1016.3
20260507040543 10 39 4.8 9.7 0.00 0.00 0.00 66 1016.2
20260507040044 10 51 6.4 8.0 0.00 0.00 0.00 66 1016.0
20260507035542 10 55 3.2 8.0 0.00 0.00 0.00 65 1016.0
20260507035041 10 55 6.4 8.0 0.00 0.00 0.00 65 1015.8
20260507034541 10 56 4.8 6.4 0.00 0.00 0.00 64 1015.7
20260507034040 11 56 4.8 8.0 0.00 0.00 0.00 63 1015.6
20260507033543 11 56 6.4 8.0 0.00 0.00 0.00 63 1015.6
20260507033040 11 57 4.8 8.0 0.00 0.00 0.00 62 1015.5
20260507032539 11 57 4.8 8.0 0.00 0.00 0.00 61 1015.4
20260507032038 11 58 4.8 8.0 0.00 0.00 0.00 61 1015.3
20260507031536 12 58 3.2 6.4 0.00 0.00 0.00 60 1015.1
20260507031038 12 59 3.2 9.7 0.00 0.00 0.00 60 1015.1
20260507030535 12 59 6.4 11.3 0.00 0.00 0.00 59 1015.0
20260507030034 12 59 8.0 11.3 0.00 0.00 0.00 59 1014.7
20260507025533 12 51 6.4 11.3 0.00 0.00 0.00 59 1014.6
20260507025034 12 61 6.4 12.9 0.00 0.00 0.00 58 1014.5
20260507024534 12 64 6.4 14.5 0.00 0.00 0.00 57 1014.4
20260507024035 12 66 8.0 16.1 0.00 0.00 0.00 57 1014.3
20260507023533 13 62 11.3 16.1 0.00 0.00 0.00 56 1014.0
20260507023037 13 63 9.7 12.9 0.00 0.00 0.00 55 1014.1
20260507022533 13 68 6.4 12.9 0.00 0.00 0.00 55 1014.2
20260507022034 13 71 6.4 12.9 0.00 0.00 0.00 54 1014.3
20260507021534 13 64 8.0 14.5 0.00 0.00 0.00 53 1014.2
20260507021034 14 65 9.7 16.1 0.00 0.00 0.00 53 1013.9
20260507020532 14 63 12.9 16.1 0.00 0.00 0.00 52 1013.8
20260507020043 14 57 11.3 16.1 0.00 0.00 0.00 52 1013.9
20260507015532 14 57 9.7 16.1 0.00 0.00 0.00 52 1013.8
20260507015032 14 53 8.0 16.1 0.00 0.00 0.00 52 1013.7
20260507014533 15 57 9.7 16.1 0.00 0.00 0.00 51 1013.6
20260507014032 15 51 9.7 16.1 0.00 0.00 0.00 50 1013.6
20260507013532 15 53 11.3 16.1 0.00 0.00 0.00 50 1013.4
20260507013046 15 59 11.3 19.3 0.00 0.00 0.00 49 1013.4
20260507012531 15 58 11.3 19.3 0.00 0.00 0.00 49 1013.4
20260507012032 16 55 11.3 19.3 0.00 0.00 0.00 48 1013.4
20260507011533 16 59 14.5 20.9 0.00 0.00 0.00 48 1013.3
20260507011030 16 50 14.5 20.9 0.00 0.00 0.00 47 1013.2
20260507010530 16 61 12.9 22.5 0.00 0.00 0.00 46 1013.1
20260507010035 16 51 16.1 22.5 0.00 0.00 0.00 46 1013.1
20260507005530 16 57 14.5 20.9 0.00 0.00 0.00 46 1013.1
20260507005029 16 54 12.9 19.3 0.00 0.00 0.00 46 1013.1
20260507004529 17 61 11.3 24.1 0.00 0.00 0.00 45 1013.1
20260507004029 17 34 12.9 24.1 0.00 0.00 0.00 45 1013.1
20260507003529 17 64 16.1 24.1 0.00 0.00 0.00 45 1013.0
20260507003040 17 68 17.7 24.1 0.00 0.00 0.00 45 1013.0
20260507002528 17 26 14.5 27.4 0.00 0.00 0.00 45 1012.9
20260507002030 17 64 19.3 25.7 0.00 0.00 0.00 45 1012.9
20260507001528 17 63 14.5 25.7 0.00 0.00 0.00 45 1012.9
20260507001027 17 57 17.7 24.1 0.00 0.00 0.00 45 1012.8
20260507000527 17 51 14.5 24.1 0.00 0.00 0.00 45 1012.8
20260507000033 17 29 16.1 27.4 0.00 0.00 0.00 45 1012.9
20260506235528 17 71 19.3 27.4 0.00 0.00 0.00 44 1012.9
20260506235026 17 58 12.9 24.1 0.00 0.00 0.00 45 1012.8
20260506234527 17 45 17.7 24.1 0.00 0.00 0.00 45 1012.8
20260506234026 17 25 16.1 24.1 0.00 0.00 0.00 45 1012.8
20260506233526 17 49 16.1 27.4 0.00 0.00 0.00 45 1012.7
20260506233027 18 33 19.3 27.4 0.00 0.00 0.00 44 1012.7
20260506232524 18 60 16.1 25.7 0.00 0.00 0.00 45 1012.7
20260506232024 18 59 17.7 25.7 0.00 0.00 0.00 44 1012.8
20260506231524 18 37 11.3 20.9 0.00 0.00 0.00 45 1012.8
20260506231025 18 343 16.1 27.4 0.00 0.00 0.00 44 1012.9
20260506230523 18 24 17.7 27.4 0.00 0.00 0.00 44 1012.9
20260506230023 18 54 14.5 24.1 0.00 0.00 0.00 44 1013.0
20260506225523 18 51 16.1 24.1 0.00 0.00 0.00 45 1012.8
20260506225023 18 36 16.1 24.1 0.00 0.00 0.00 45 1012.7
20260506224522 18 57 14.5 22.5 0.00 0.00 0.00 45 1012.6
20260506224025 18 55 14.5 27.4 0.00 0.00 0.00 45 1012.6
20260506223523 18 29 17.7 27.4 0.00 0.00 0.00 45 1012.6
20260506223022 18 72 17.7 25.7 0.00 0.00 0.00 45 1012.5
20260506222522 18 33 12.9 27.4 0.00 0.00 0.00 44 1012.4
20260506222026 18 56 22.5 27.4 0.00 0.00 0.00 44 1012.3
20260506221622 18 49 11.3 25.7 0.00 0.00 0.00 44 1012.3
20260506221021 18 35 16.1 27.4 0.00 0.00 0.00 44 1012.3
20260506220519 18 41 14.5 33.8 0.00 0.00 0.00 45 1012.2
20260506220019 18 57 16.1 33.8 0.00 0.00 0.00 44 1012.2
20260506215518 18 22 16.1 25.7 0.00 0.00 0.00 46 1012.3
20260506215022 18 49 8.0 29.0 0.00 0.00 0.00 45 1012.3
20260506214531 18 35 19.3 29.0 0.00 0.00 0.00 45 1012.3
20260506214018 18 49 17.7 30.6 0.00 0.00 0.00 45 1012.4
20260506213519 18 57 22.5 30.6 0.00 0.00 0.00 45 1012.5
20260506213020 18 5 19.3 32.2 0.00 0.00 0.00 46 1012.5
20260506212517 18 68 19.3 32.2 0.00 0.00 0.00 44 1012.4
20260506212017 18 61 14.5 24.1 0.00 0.00 0.00 45 1012.4
20260506211517 18 34 19.3 27.4 0.00 0.00 0.00 45 1012.6
20260506211016 18 21 19.3 27.4 0.00 0.00 0.00 45 1012.5
20260506210515 18 14 16.1 32.2 0.00 0.00 0.00 46 1012.5
20260506210019 18 54 22.5 32.2 0.00 0.00 0.00 45 1012.5
20260506205514 18 67 24.1 29.0 0.00 0.00 0.00 45 1012.6
20260506205015 18 34 19.3 30.6 0.00 0.00 0.00 45 1012.6
20260506204515 18 355 24.1 32.2 0.00 0.00 0.00 44 1012.7
20260506204016 18 49 20.9 29.0 0.00 0.00 0.00 46 1012.7
20260506203514 18 355 11.3 29.0 0.00 0.00 0.00 45 1012.8
20260506203018 18 30 19.3 32.2 0.00 0.00 0.00 45 1012.9
20260506202513 18 42 20.9 32.2 0.00 0.00 0.00 46 1012.9
20260506202012 18 5 20.9 30.6 0.00 0.00 0.00 46 1013.0
20260506201514 17 17 20.9 35.4 0.00 0.00 0.00 46 1012.9
20260506201016 17 70 17.7 37.0 0.00 0.00 0.00 46 1013.0
20260506200511 18 54 24.1 35.4 0.00 0.00 0.00 45 1013.1
20260506200012 17 32 16.1 27.4 0.00 0.00 0.00 47 1013.1
20260506195510 17 45 16.1 40.2 0.00 0.00 0.00 46 1013.1
20260506195009 17 55 22.5 40.2 0.00 0.00 0.00 48 1013.1
20260506194511 17 34 14.5 32.2 0.00 0.00 0.00 47 1013.2
20260506194007 17 63 14.5 25.7 0.00 0.00 0.00 48 1013.1
20260506193508 17 47 16.1 30.6 0.00 0.00 0.00 50 1013.1
20260506193008 16 74 19.3 30.6 0.00 0.00 0.00 49 1013.2
20260506192507 17 63 17.7 29.0 0.00 0.00 0.00 48 1013.2
20260506192007 17 40 20.9 29.0 0.00 0.00 0.00 49 1013.2
20260506191506 17 24 19.3 27.4 0.00 0.00 0.00 48 1013.2
20260506191007 17 80 17.7 27.4 0.00 0.00 0.00 49 1013.1
20260506190505 17 47 16.1 33.8 0.00 0.00 0.00 51 1013.2
20260506190008 16 40 22.5 33.8 0.00 0.00 0.00 50 1013.4
20260506185502 16 32 14.5 29.0 0.00 0.00 0.00 53 1013.4
20260506185002 16 55 17.7 32.2 0.00 0.00 0.00 51 1013.4
20260506184502 16 82 20.9 32.2 0.00 0.00 0.00 52 1013.6
20260506184001 16 49 17.7 32.2 0.00 0.00 0.00 52 1013.7
20260506183501 16 51 17.7 32.2 0.00 0.00 0.00 52 1013.7
20260506183105 16 64 19.3 30.6 0.00 0.00 0.00 54 1013.8
20260506182559 16 56 17.7 29.0 0.00 0.00 0.00 54 1013.7
20260506182057 15 77 16.1 25.7 0.00 0.00 0.00 54 1013.8
20260506181622 15 30 17.7 29.0 0.00 0.00 0.00 55 1014.0
20260506181056 15 63 12.9 30.6 0.00 0.00 0.00 55 1014.1
20260506180557 15 88 20.9 32.2 0.00 0.00 0.00 56 1014.0
20260506180055 15 88 16.1 32.2 0.00 0.00 0.00 55 1014.1
20260506175554 15 69 17.7 32.2 0.00 0.00 0.00 55 1014.2
20260506175054 15 107 17.7 32.2 0.00 0.00 0.00 56 1014.2
20260506174553 15 90 16.1 30.6 0.00 0.00 0.00 58 1014.3
20260506174052 15 55 19.3 30.6 0.00 0.00 0.00 58 1014.4
20260506173551 14 66 16.1 29.0 0.00 0.00 0.00 60 1014.4
20260506173059 14 91 19.3 29.0 0.00 0.00 0.00 59 1014.5
20260506172549 14 108 16.1 25.7 0.00 0.00 0.00 60 1014.5
20260506172049 14 69 14.5 29.0 0.00 0.00 0.00 59 1014.5
20260506171548 14 65 19.3 29.0 0.00 0.00 0.00 59 1014.6
20260506171048 14 98 16.1 29.0 0.00 0.00 0.00 60 1014.6
20260506170547 14 64 14.5 29.0 0.00 0.00 0.00 61 1014.7
20260506170049 13 71 22.5 30.6 0.00 0.00 0.00 62 1014.7
20260506165545 13 92 16.1 32.2 0.00 0.00 0.00 61 1014.6
20260506165045 13 86 19.3 32.2 0.00 0.00 0.00 63 1014.5
20260506164547 13 66 20.9 32.2 0.00 0.00 0.00 62 1014.5
20260506164043 13 57 16.1 32.2 0.00 0.00 0.00 62 1014.4
20260506163543 13 77 17.7 35.4 0.00 0.00 0.00 63 1014.6
20260506163043 13 92 22.5 35.4 0.00 0.00 0.00 64 1014.5
20260506162540 13 69 16.1 30.6 0.00 0.00 0.00 63 1014.5
20260506162040 13 65 22.5 33.8 0.00 0.00 0.00 64 1014.5
20260506161539 13 95 19.3 33.8 0.00 0.00 0.00 63 1014.5
20260506161039 12 74 19.3 37.0 0.00 0.00 0.00 63 1014.6
20260506160538 12 57 24.1 37.0 0.00 0.00 0.00 64 1014.6
20260506160037 12 71 24.1 33.8 0.00 0.00 0.00 65 1014.7
20260506155538 12 87 24.1 33.8 0.00 0.00 0.00 64 1014.6
20260506155035 12 24 20.9 32.2 0.00 0.00 0.00 65 1014.5
20260506154535 12 44 22.5 33.8 0.00 0.00 0.00 65 1014.5
20260506154034 12 76 24.1 35.4 0.00 0.00 0.00 66 1014.6
20260506153532 12 80 25.7 35.4 0.00 0.00 0.00 66 1014.5
20260506153036 11 52 22.5 35.4 0.00 0.00 0.00 67 1014.4
20260506152530 11 59 22.5 35.4 0.00 0.00 0.00 69 1014.4
20260506152031 11 57 27.4 35.4 0.00 0.00 0.00 67 1014.6
20260506151531 11 70 25.7 35.4 0.00 0.00 0.00 68 1014.6
20260506151033 11 80 24.1 32.2 0.00 0.00 0.00 67 1014.6
20260506150530 11 63 24.1 35.4 0.00 0.00 0.00 67 1014.5
20260506150032 11 53 24.1 38.6 0.00 0.00 0.00 67 1014.3
20260506145527 11 102 24.1 38.6 0.00 0.00 0.00 68 1014.2
20260506145025 11 65 27.4 38.6 0.00 0.00 0.00 69 1014.2
20260506144526 11 63 30.6 38.6 0.00 0.00 0.00 70 1014.1
20260506144023 11 61 29.0 38.6 0.00 0.00 0.00 70 1014.0
20260506143522 11 65 25.7 38.6 0.00 0.00 0.00 70 1013.9
20260506143022 10 54 27.4 38.6 0.00 0.00 0.00 72 1013.7
20260506142519 10 46 30.6 38.6 0.00 0.00 0.00 72 1013.7
20260506142017 10 63 27.4 37.0 0.00 0.00 0.00 72 1013.6
20260506141517 10 55 27.4 38.6 0.00 0.00 0.00 73 1013.6
20260506141018 10 49 25.7 38.6 0.00 0.00 0.00 73 1013.6
20260506140516 10 66 25.7 35.4 0.00 0.00 0.00 73 1013.5
20260506140017 10 65 22.5 41.8 0.00 0.00 0.00 74 1013.4
20260506135514 10 65 30.6 41.8 0.00 0.00 0.00 74 1013.4
20260506135115 10 62 25.7 35.4 0.00 0.00 0.00 75 1013.4
20260506134514 9 46 25.7 43.5 0.00 0.00 0.00 75 1013.4
20260506134019 9 62 25.7 37.0 0.00 0.00 0.00 75 1013.4
20260506133514 9 57 24.1 38.6 0.00 0.00 0.00 75 1013.3
20260506133014 9 54 27.4 38.6 0.00 0.00 0.00 75 1013.3
20260506132513 9 48 25.7 33.8 0.00 0.00 0.00 76 1013.4
20260506132013 9 51 24.1 33.8 0.00 0.00 0.00 76 1013.4
20260506131523 9 49 19.3 37.0 0.00 0.00 0.00 76 1013.5
20260506131014 9 49 29.0 37.0 0.00 0.00 0.00 76 1013.5
20260506130514 9 46 22.5 32.2 0.00 0.00 0.00 77 1013.4
20260506130012 9 54 17.7 32.2 0.00 0.00 0.00 77 1013.4
20260506125512 9 34 20.9 32.2 0.00 0.00 0.00 77 1013.4
20260506125011 9 31 19.3 29.0 0.00 0.00 0.00 78 1013.3
20260506124511 9 50 16.1 27.4 0.00 0.00 0.00 78 1013.3
20260506124015 9 48 19.3 27.4 0.00 0.00 0.00 79 1013.4
20260506123511 8 51 14.5 27.4 0.00 0.00 0.00 79 1013.3
20260506123010 8 46 19.3 27.4 0.00 0.00 0.00 80 1013.3
20260506122510 8 32 17.7 24.1 0.00 0.00 0.00 80 1013.3
20260506122010 8 24 16.1 20.9 0.00 0.00 0.00 81 1013.3
20260506121508 8 24 16.1 20.9 0.00 0.00 0.00 81 1013.2
20260506121009 8 33 12.9 20.9 0.00 0.00 0.00 81 1013.2
20260506120508 8 44 14.5 19.3 0.00 0.00 0.00 81 1013.1
20260506120015 8 42 12.9 19.3 0.00 0.00 0.00 81 1013.0
20260506115506 8 43 12.9 19.3 0.00 0.00 0.00 81 1012.8
20260506115004 8 57 12.9 17.7 0.00 0.00 0.00 81 1012.6
20260506114511 8 42 11.3 17.7 0.00 0.00 0.00 81 1012.6
20260506114003 8 46 11.3 19.3 0.00 0.00 0.00 80 1012.5
20260506113503 8 51 11.3 20.9 0.00 0.00 0.00 80 1012.2
20260506113008 8 55 14.5 20.9 0.00 0.00 0.00 80 1012.0
20260506112501 8 53 14.5 20.9 0.00 0.00 0.00 80 1012.0
20260506112001 8 59 11.3 20.9 0.00 0.00 0.00 80 1011.9
20260506111501 8 57 11.3 19.3 0.00 0.00 0.00 79 1012.0
20260506111101 8 59 11.3 19.3 0.00 0.00 0.00 79 1012.0
20260506110600 8 44 12.9 20.9 0.00 0.00 0.00 79 1012.1
20260506110100 8 49 12.9 22.5 0.00 0.00 0.00 78 1011.9
20260506105559 8 54 11.3 22.5 0.00 0.00 0.00 78 1011.8
20260506105100 8 50 14.5 20.9 0.00 0.00 0.00 78 1011.6
20260506104601 8 55 14.5 24.1 0.00 0.00 0.00 77 1011.8
20260506104058 8 54 20.9 32.2 0.00 0.00 0.00 77 1011.4
20260506103557 8 58 19.3 27.4 0.00 0.00 0.00 77 1011.3
20260506103057 8 48 19.3 27.4 0.00 0.00 0.00 76 1011.1
20260506102556 8 42 17.7 25.7 0.00 0.00 0.00 76 1011.4
20260506102055 8 62 16.1 25.7 0.00 0.00 0.00 75 1011.8
20260506102026 8 57 17.7 25.7 0.00 0.00 0.00 75 1011.7
20260506101654 9 46 16.1 25.7 0.00 0.00 0.00 75 1011.8
20260506101053 9 47 17.7 29.0 0.00 0.00 0.00 74 1011.5
20260506100553 9 52 22.5 29.0 0.00 0.00 0.00 73 1011.6
20260506100051 9 34 19.3 27.4 0.00 0.00 0.00 72 1011.8
20260506095552 9 59 16.1 24.1 0.00 0.00 0.00 72 1011.9
20260506095051 9 38 16.1 25.7 0.00 0.00 0.00 71 1012.2
20260506094551 9 42 20.9 29.0 0.00 0.00 0.00 71 1012.3
20260506094050 9 40 17.7 29.0 0.00 0.00 0.00 71 1012.4
20260506093550 9 44 16.1 25.7 0.00 0.00 0.00 71 1012.5
20260506093049 9 58 12.9 22.5 0.00 0.00 0.00 70 1012.1
20260506092548 9 42 16.1 25.7 0.00 0.00 0.00 70 1011.8
20260506092047 9 57 17.7 25.7 0.00 0.00 0.00 69 1011.8
20260506091553 9 51 19.3 25.7 0.00 0.00 0.00 69 1011.7
20260506091046 10 61 14.5 24.1 0.00 0.00 0.00 69 1011.8
20260506090548 10 59 14.5 25.7 0.00 0.00 0.00 69 1011.6
20260506090053 10 56 16.1 29.0 0.00 0.00 0.00 68 1011.7
20260506085544 9 61 20.9 29.0 0.00 0.00 0.00 68 1011.3
20260506085045 10 57 19.3 25.7 0.00 0.00 0.00 67 1011.2
20260506084547 10 55 20.9 25.7 0.00 0.00 0.00 67 1011.1
20260506084043 10 47 14.5 27.4 0.00 0.00 0.00 66 1011.2
20260506083543 10 49 19.3 27.4 0.00 0.00 0.00 66 1010.9
20260506083043 10 34 16.1 29.0 0.00 0.00 0.00 66 1011.1
20260506082543 10 48 17.7 24.1 0.00 0.00 0.00 66 1011.0
20260506082041 9 57 17.7 27.4 0.00 0.00 0.00 65 1011.1
20260506081540 9 65 17.7 24.1 0.00 0.00 0.00 66 1010.9
20260506081041 9 57 16.1 25.7 0.00 0.00 0.00 66 1010.9
20260506080540 9 63 14.5 25.7 0.00 0.00 0.00 67 1010.9
20260506073033 9 27 22.5 30.6 0.00 0.00 0.00 68 1009.8
20260506072534 9 48 19.3 29.0 0.00 0.00 0.00 68 1009.8
20260506072030 9 43 22.5 29.0 0.00 0.00 0.00 68 1009.5
20260506071531 9 49 19.3 25.7 0.00 0.00 0.00 68 1009.4
20260506071031 9 73 17.7 29.0 0.00 0.00 0.00 68 1009.3
20260506070530 9 58 22.5 37.0 0.00 0.00 0.00 68 1009.1
20260506062025 10 50 19.3 32.2 0.00 0.00 0.00 72 1009.2
20260506061524 10 71 17.7 33.8 0.00 0.00 0.00 72 1009.1